Aviation Digital Data Service (ADDS)

Output produced by METARs form (1115 UTC 24 April 2017)
found at http://www.aviationweather.gov/adds/metars/
 
OPLA 241025Z 00000KT 7000 NSC 35/11 Q1006 A29.73
TAF OPLA 240945Z 2412/2518 05003KT 4000 FU SCT100 TX36/2510Z TN20/2501Z 
     BECMG 2500/2503 2000 FU 
     BECMG 3000 HZ 
     FM250500 05008KT 6000 SCT100
       
TAF OPBW 241000Z 2412/2506 36010KT 3000 FU SCT120 TN21/2501Z 
     PROB30 
     TEMPO 2412/2416 36020KT 1500 DRDU FEW040
       
TAF OPBW 241000Z 2412/2506 36010KT 3000 FU SCT120 TN21/2501Z 
     PROB30 
     TEMPO 2412/2416 36020KT 1500 DRDU FEW040
       
TAF OPDG 241000Z 2412/2506 05010KT 5000 HZ SCT120 TN22/2501Z 
     PROB30 
     TEMPO 2412/2416 36020KT 2000 DRDU SCT040
       
TAF OPGD 241000Z 2412/2512 25007KT 4000 FU SCT020 
     TEMPO 2500/2504 VRB03KT 2000 FU SCT020 
     BECMG 2505/2507 23010G20KT 6000 FEW030
       
OPKC 241030Z 21012KT 6000 NSC 32/18 Q1006 NOSIG
TAF OPKC 241000Z 2412/2518 24010KT 6000 SCT020 
     TEMPO 2501/2505 25008KT 4000 FU SCT020 
     BECMG 2506/2608 23010G20KT 7000 FEW020
       
OPLA 241025Z 00000KT 7000 NSC 35/11 Q1006 A29.73
TAF OPLA 240945Z 2412/2518 05003KT 4000 FU SCT100 TX36/2510Z TN20/2501Z 
     BECMG 2500/2503 2000 FU 
     BECMG 3000 HZ 
     FM250500 05008KT 6000 SCT100
       
OPMT 241055Z 13006KT 7000 NSC 33/14 Q1006 NOSIG
TAF OPMT 241000Z 2412/2506 05010KT 4000 FU SCT120 TN21/2501Z 
     PROB30 
     TEMPO 2412/2416 36020KT 2000 DRDU SCT040
       
OPNH 241000Z 13510KT 6000M NSC 41/19 Q.1002 NOSIG
TAF OPNH 241000Z 2412/2518 18007KT 4000 HZ NSC 
     TEMPO 2501/2505 VRB03KT 3000 FU NSC 
     BECMG 2506/2508 14008G18KT 5000 HZ NSC
       
OPPS 241100Z 36010KT 5000 HZ SCT040 25/13 Q1011
TAF OPPS 240930Z 2412/2518 22010KT 4000 HZ SCT040 BKN100 
     TEMPO 2415/2418 VCTS FEW030TCU SCT040 BKN100 
     TEMPO 2509/2512 FEW030TCU SCT040 BKN100
       
TAF OPRK 241000Z 2412/2506 05010KT 3000 FU FEW120 TN20/2501Z 
     PROB30 
     TEMPO 2412/2416 36020KT 1500 DRDU FEW120
       
OPRN 241000Z 27014KT 8000 FEW035 SCT120 26/15 Q1011.1/29.86
TAF OPRN 240930Z 2412/2518 30010KT 6000 SCT040 SCT100 
     TEMPO 2412/2417 30010G20KT 4000 VCTS FEW030TCU/CB SCT040 BKN100 
     TEMPO 2500/2504 03010KT 2000 BR 
     BECMG 2504/2506 30010G20KT 9999 SCT040
       
OPSK 241100Z 23008KT 4000 HZ FEW040 40/18 Q1002 NOSIG
TAF OPSK 241000Z 2412/2512 08007KT 4000 HZ NSC 
     TEMPO 2501/2505 VRB03KT 3000 FU NSC 
     BECMG 2506/2508 14005G15KT 5000 HZ NSC
       
OPST 241100Z 27006KT 7000 FEW040 34/13 Q1007 NOSIG RH29
TAF OPBW 241000Z 2412/2506 36010KT 3000 FU SCT120 TN21/2501Z 
     PROB30 
     TEMPO 2412/2416 36020KT 1500 DRDU FEW040
       
TAF OPDG 241000Z 2412/2506 05010KT 5000 HZ SCT120 TN22/2501Z 
     PROB30 
     TEMPO 2412/2416 36020KT 2000 DRDU SCT040
       
TAF OPGD 241000Z 2412/2512 25007KT 4000 FU SCT020 
     TEMPO 2500/2504 VRB03KT 2000 FU SCT020 
     BECMG 2505/2507 23010G20KT 6000 FEW030
       
OPKC 241030Z 21012KT 6000 NSC 32/18 Q1006 NOSIG
TAF OPKC 241000Z 2412/2518 24010KT 6000 SCT020 
     TEMPO 2501/2505 25008KT 4000 FU SCT020 
     BECMG 2506/2608 23010G20KT 7000 FEW020
       
OPLA 241025Z 00000KT 7000 NSC 35/11 Q1006 A29.73
TAF OPLA 240945Z 2412/2518 05003KT 4000 FU SCT100 TX36/2510Z TN20/2501Z 
     BECMG 2500/2503 2000 FU 
     BECMG 3000 HZ 
     FM250500 05008KT 6000 SCT100
       
OPMT 241055Z 13006KT 7000 NSC 33/14 Q1006 NOSIG
TAF OPMT 241000Z 2412/2506 05010KT 4000 FU SCT120 TN21/2501Z 
     PROB30 
     TEMPO 2412/2416 36020KT 2000 DRDU SCT040
       
OPNH 241000Z 13510KT 6000M NSC 41/19 Q.1002 NOSIG
TAF OPNH 241000Z 2412/2518 18007KT 4000 HZ NSC 
     TEMPO 2501/2505 VRB03KT 3000 FU NSC 
     BECMG 2506/2508 14008G18KT 5000 HZ NSC
       
OPPS 241100Z 36010KT 5000 HZ SCT040 25/13 Q1011
TAF OPPS 240930Z 2412/2518 22010KT 4000 HZ SCT040 BKN100 
     TEMPO 2415/2418 VCTS FEW030TCU SCT040 BKN100 
     TEMPO 2509/2512 FEW030TCU SCT040 BKN100
       
TAF OPRK 241000Z 2412/2506 05010KT 3000 FU FEW120 TN20/2501Z 
     PROB30 
     TEMPO 2412/2416 36020KT 1500 DRDU FEW120
       
OPRN 241000Z 27014KT 8000 FEW035 SCT120 26/15 Q1011.1/29.86
TAF OPRN 240930Z 2412/2518 30010KT 6000 SCT040 SCT100 
     TEMPO 2412/2417 30010G20KT 4000 VCTS FEW030TCU/CB SCT040 BKN100 
     TEMPO 2500/2504 03010KT 2000 BR 
     BECMG 2504/2506 30010G20KT 9999 SCT040
       
OPSK 241100Z 23008KT 4000 HZ FEW040 40/18 Q1002 NOSIG
TAF OPSK 241000Z 2412/2512 08007KT 4000 HZ NSC 
     TEMPO 2501/2505 VRB03KT 3000 FU NSC 
     BECMG 2506/2508 14005G15KT 5000 HZ NSC
       
OPST 241100Z 27006KT 7000 FEW040 34/13 Q1007 NOSIG RH29
OPRN 241000Z 27014KT 8000 FEW035 SCT120 26/15 Q1011.1/29.86
TAF OPRN 240930Z 2412/2518 30010KT 6000 SCT040 SCT100 
     TEMPO 2412/2417 30010G20KT 4000 VCTS FEW030TCU/CB SCT040 BKN100 
     TEMPO 2500/2504 03010KT 2000 BR 
     BECMG 2504/2506 30010G20KT 9999 SCT040
       
TAF OPBW 241000Z 2412/2506 36010KT 3000 FU SCT120 TN21/2501Z 
     PROB30 
     TEMPO 2412/2416 36020KT 1500 DRDU FEW040
       
TAF OPDG 241000Z 2412/2506 05010KT 5000 HZ SCT120 TN22/2501Z 
     PROB30 
     TEMPO 2412/2416 36020KT 2000 DRDU SCT040
       
TAF OPGD 241000Z 2412/2512 25007KT 4000 FU SCT020 
     TEMPO 2500/2504 VRB03KT 2000 FU SCT020 
     BECMG 2505/2507 23010G20KT 6000 FEW030
       
OPKC 241030Z 21012KT 6000 NSC 32/18 Q1006 NOSIG
TAF OPKC 241000Z 2412/2518 24010KT 6000 SCT020 
     TEMPO 2501/2505 25008KT 4000 FU SCT020 
     BECMG 2506/2608 23010G20KT 7000 FEW020
       
OPLA 241025Z 00000KT 7000 NSC 35/11 Q1006 A29.73
TAF OPLA 240945Z 2412/2518 05003KT 4000 FU SCT100 TX36/2510Z TN20/2501Z 
     BECMG 2500/2503 2000 FU 
     BECMG 3000 HZ 
     FM250500 05008KT 6000 SCT100
       
OPMT 241055Z 13006KT 7000 NSC 33/14 Q1006 NOSIG
TAF OPMT 241000Z 2412/2506 05010KT 4000 FU SCT120 TN21/2501Z 
     PROB30 
     TEMPO 2412/2416 36020KT 2000 DRDU SCT040
       
OPNH 241000Z 13510KT 6000M NSC 41/19 Q.1002 NOSIG
TAF OPNH 241000Z 2412/2518 18007KT 4000 HZ NSC 
     TEMPO 2501/2505 VRB03KT 3000 FU NSC 
     BECMG 2506/2508 14008G18KT 5000 HZ NSC
       
OPPS 241100Z 36010KT 5000 HZ SCT040 25/13 Q1011
TAF OPPS 240930Z 2412/2518 22010KT 4000 HZ SCT040 BKN100 
     TEMPO 2415/2418 VCTS FEW030TCU SCT040 BKN100 
     TEMPO 2509/2512 FEW030TCU SCT040 BKN100
       
TAF OPRK 241000Z 2412/2506 05010KT 3000 FU FEW120 TN20/2501Z 
     PROB30 
     TEMPO 2412/2416 36020KT 1500 DRDU FEW120
       
OPRN 241000Z 27014KT 8000 FEW035 SCT120 26/15 Q1011.1/29.86
TAF OPRN 240930Z 2412/2518 30010KT 6000 SCT040 SCT100 
     TEMPO 2412/2417 30010G20KT 4000 VCTS FEW030TCU/CB SCT040 BKN100 
     TEMPO 2500/2504 03010KT 2000 BR 
     BECMG 2504/2506 30010G20KT 9999 SCT040
       
OPSK 241100Z 23008KT 4000 HZ FEW040 40/18 Q1002 NOSIG
TAF OPSK 241000Z 2412/2512 08007KT 4000 HZ NSC 
     TEMPO 2501/2505 VRB03KT 3000 FU NSC 
     BECMG 2506/2508 14005G15KT 5000 HZ NSC
       
OPST 241100Z 27006KT 7000 FEW040 34/13 Q1007 NOSIG RH29
TAF OPBW 241000Z 2412/2506 36010KT 3000 FU SCT120 TN21/2501Z 
     PROB30 
     TEMPO 2412/2416 36020KT 1500 DRDU FEW040
       
TAF OPDG 241000Z 2412/2506 05010KT 5000 HZ SCT120 TN22/2501Z 
     PROB30 
     TEMPO 2412/2416 36020KT 2000 DRDU SCT040
       
TAF OPGD 241000Z 2412/2512 25007KT 4000 FU SCT020 
     TEMPO 2500/2504 VRB03KT 2000 FU SCT020 
     BECMG 2505/2507 23010G20KT 6000 FEW030
       
OPKC 241030Z 21012KT 6000 NSC 32/18 Q1006 NOSIG
TAF OPKC 241000Z 2412/2518 24010KT 6000 SCT020 
     TEMPO 2501/2505 25008KT 4000 FU SCT020 
     BECMG 2506/2608 23010G20KT 7000 FEW020
       
OPLA 241025Z 00000KT 7000 NSC 35/11 Q1006 A29.73
TAF OPLA 240945Z 2412/2518 05003KT 4000 FU SCT100 TX36/2510Z TN20/2501Z 
     BECMG 2500/2503 2000 FU 
     BECMG 3000 HZ 
     FM250500 05008KT 6000 SCT100
       
OPMT 241055Z 13006KT 7000 NSC 33/14 Q1006 NOSIG
TAF OPMT 241000Z 2412/2506 05010KT 4000 FU SCT120 TN21/2501Z 
     PROB30 
     TEMPO 2412/2416 36020KT 2000 DRDU SCT040
       
OPNH 241000Z 13510KT 6000M NSC 41/19 Q.1002 NOSIG
TAF OPNH 241000Z 2412/2518 18007KT 4000 HZ NSC 
     TEMPO 2501/2505 VRB03KT 3000 FU NSC 
     BECMG 2506/2508 14008G18KT 5000 HZ NSC
       
OPPS 241100Z 36010KT 5000 HZ SCT040 25/13 Q1011
TAF OPPS 240930Z 2412/2518 22010KT 4000 HZ SCT040 BKN100 
     TEMPO 2415/2418 VCTS FEW030TCU SCT040 BKN100 
     TEMPO 2509/2512 FEW030TCU SCT040 BKN100
       
TAF OPRK 241000Z 2412/2506 05010KT 3000 FU FEW120 TN20/2501Z 
     PROB30 
     TEMPO 2412/2416 36020KT 1500 DRDU FEW120
       
OPRN 241000Z 27014KT 8000 FEW035 SCT120 26/15 Q1011.1/29.86
TAF OPRN 240930Z 2412/2518 30010KT 6000 SCT040 SCT100 
     TEMPO 2412/2417 30010G20KT 4000 VCTS FEW030TCU/CB SCT040 BKN100 
     TEMPO 2500/2504 03010KT 2000 BR 
     BECMG 2504/2506 30010G20KT 9999 SCT040
       
OPSK 241100Z 23008KT 4000 HZ FEW040 40/18 Q1002 NOSIG
TAF OPSK 241000Z 2412/2512 08007KT 4000 HZ NSC 
     TEMPO 2501/2505 VRB03KT 3000 FU NSC 
     BECMG 2506/2508 14005G15KT 5000 HZ NSC
       
OPST 241100Z 27006KT 7000 FEW040 34/13 Q1007 NOSIG RH29
TAF OPDG 241000Z 2412/2506 05010KT 5000 HZ SCT120 TN22/2501Z 
     PROB30 
     TEMPO 2412/2416 36020KT 2000 DRDU SCT040
       
TAF OPGD 241000Z 2412/2512 25007KT 4000 FU SCT020 
     TEMPO 2500/2504 VRB03KT 2000 FU SCT020 
     BECMG 2505/2507 23010G20KT 6000 FEW030
       
OPKC 241030Z 21012KT 6000 NSC 32/18 Q1006 NOSIG
TAF OPKC 241000Z 2412/2518 24010KT 6000 SCT020 
     TEMPO 2501/2505 25008KT 4000 FU SCT020 
     BECMG 2506/2608 23010G20KT 7000 FEW020
       
OPMT 241055Z 13006KT 7000 NSC 33/14 Q1006 NOSIG
TAF OPMT 241000Z 2412/2506 05010KT 4000 FU SCT120 TN21/2501Z 
     PROB30 
     TEMPO 2412/2416 36020KT 2000 DRDU SCT040
       
OPNH 241000Z 13510KT 6000M NSC 41/19 Q.1002 NOSIG
TAF OPNH 241000Z 2412/2518 18007KT 4000 HZ NSC 
     TEMPO 2501/2505 VRB03KT 3000 FU NSC 
     BECMG 2506/2508 14008G18KT 5000 HZ NSC
       
OPPS 241100Z 36010KT 5000 HZ SCT040 25/13 Q1011
TAF OPPS 240930Z 2412/2518 22010KT 4000 HZ SCT040 BKN100 
     TEMPO 2415/2418 VCTS FEW030TCU SCT040 BKN100 
     TEMPO 2509/2512 FEW030TCU SCT040 BKN100
       
TAF OPRK 241000Z 2412/2506 05010KT 3000 FU FEW120 TN20/2501Z 
     PROB30 
     TEMPO 2412/2416 36020KT 1500 DRDU FEW120
       
OPSK 241100Z 23008KT 4000 HZ FEW040 40/18 Q1002 NOSIG
TAF OPSK 241000Z 2412/2512 08007KT 4000 HZ NSC 
     TEMPO 2501/2505 VRB03KT 3000 FU NSC 
     BECMG 2506/2508 14005G15KT 5000 HZ NSC